Regional Weather Roundup
Issued by NWS Charleston, SC

Current Version | Previous Version | Text Only | Print | Product List | Glossary Off
Versions: 1 2 3 4 5 6 7 8 9 10 11 12 13 14 15 16 17 18 19 20 21 22 23 24 25 26 27 28 29 30 31 32 33 34 35 36 37 38 39 40 41 42 43 44 45 46 47 48 49 50
000 ASUS42 KCHS 290813 RWRCHS REGIONAL WEATHER ROUNDUP NATIONAL WEATHER SERVICE CHARLESTON SC 400 AM EDT FRI JUL 29 2016 NOTE: "FAIR" INDICATES FEW OR NO CLOUDS BELOW 12,000 FEET WITH NO SIGNIFICANT WEATHER AND/OR OBSTRUCTIONS TO VISIBILITY. NOT ALL STATIONS ARE QUALITY CONTROLLED. USE DATA WITH CAUTION... ESPECIALLY DEWPOINT OBSERVATIONS. SCZ027-030-031-034>040-042>050-290900- ...SOUTHEAST SOUTH CAROLINA... CITY SKY/WX TMP DP RH WIND PRES REMARKS N CHARLESTON PTCLDY 83 75 77 SW9 29.94S HX 90 WATERFRONT PRK N/A 85 79 82 VRB3 29.92F HX 98 MOUNT PLEASANT FAIR 84 79 84 CALM 29.94S HX 96 JOHNS ISLAND FAIR 84 77 79 SW6 29.95S HX 94 PINOPOLIS N/A 82 79 89 SW8 29.87S HX 93 MONCKS CORNER FAIR 77 73 88 SW5 29.94S SUMMERVILLE NOT AVBL BEAUFORT MCAS CLEAR 83 72 69 SW13 29.96S BEAUFORT ARPT FAIR 82 73 74 SW8 29.96S HILTON HEAD IS CLEAR 82 75 78 SW7 29.98R WALTERBORO SUNNY 81 77 89 SW5 29.96S ALLENDALE FAIR 77 68 73 CALM 29.96R ...SOUTHERN MIDLANDS AND PEE DEE... CITY SKY/WX TMP DP RH WIND PRES REMARKS GEORGETOWN FAIR 79 77 94 SW7 29.94S KINGSTREE FAIR 77 73 88 CALM 29.93S ORANGEBURG CLEAR 75 69 81 SW3 29.95S BARNWELL NOT AVBL AIKEN FAIR 77 68 73 SW5 30.00R MANNING FAIR 79 72 78 SW5 29.94S COLUMBIA CLEAR 80 68 66 SW6 29.93R SUMTER CLEAR 79 68 69 SW6 29.91S FLORENCE CLEAR 79 70 74 SW6 29.93R MYRTLE BEACH CLEAR 82 72 69 W9 29.94S N MYRTLE BEACH CLEAR 83 77 82 W8 29.92S HX 92 $$ GAZ063-065-086>088-099>101-113>116-118-119-134>141-150-290900- ...SOUTHEAST GEORGIA... CITY SKY/WX TMP DP RH WIND PRES REMARKS SAVANNAH ARPT CLEAR 80 71 74 W8 29.98S HUNTER AAF CLEAR 80 75 84 SW7 29.95S FORT STEWART CLEAR 79 71 76 SW5 29.96S STATESBORO PTCLDY 81 71 72 W6 29.98R SYLVANIA NOT AVBL CLAXTON FAIR 78 72 81 SW5 29.98S ...CSRA...CENTRAL AND FAR SOUTHEAST GEORGIA... CITY SKY/WX TMP DP RH WIND PRES REMARKS THOMSON NOT AVBL AUGUSTA-BUSH CLEAR 79 69 71 W5 29.95S AUGUSTA-DANIEL CLEAR 82 69 64 CALM 29.97S SWAINSBORO FAIR 79 68 69 W3 30.00R VIDALIA CLEAR 79 70 73 W5 30.00R EASTMAN FAIR 79 63 57 CALM 30.03R HAZLEHURST FAIR 80 76 86 CALM 29.99S ALMA CLEAR 78 73 84 W5 30.00S WAYCROSS PTCLDY 80 77 90 W5 30.00F JESUP FAIR 79 75 89 CALM 30.00S BAXLEY FAIR 79 77 94 W3 30.00S BRUNSWICK CLEAR 81 77 89 W10 30.00S SAINT SIMONS CLEAR 82 74 76 W8 29.99F $$ SCZ027-028-034-036>038-045-046-048>050-GAZ119-141-290900- ...LAKE AND SUPPLEMENTAL COASTAL OBSERVATIONS... STATION/POSITION TIME TEMP WIND PRES WAVE SWELL AIR SEA DIR/SP/G HT/PER HT/PER/DIR (UTC) (F) (DEG/KT/KT) (MB) (FT/S) (FT/S/D) WINYAH BAY 0645 83 230/ 7 1013.0 LAKE MURRAY 0700 83 260/ 7/ 9 1013.2R ACE BASIN NERRS NOT AVBL FORT PULASKI 0700 82 88 220/ 5/ 8 1015.3F SAPELO ISLAND 0700 82 210/ 9 1016.0S $$ ANZ835-935-AMZ111-154-330-350-352-354-370-450-454-472-290900- ...C-MAN AND BUOY OBSERVATIONS... STATION/POSITION TIME TEMP WIND PRES WAVE SWELL AIR SEA DIR/SP/G HT/PER HT/PER/DIR (UTC) (F) (DEG/KT/KT) (MB) (FT/S) (FT/S/D) BUOY 41004 0750 86 86 230/ 19/ 23 1013.1F 5/ 5 BUOY 41008 0750 86 87 240/ 17/ 21 1014.6F 3/ 5 FOLLY BEACH CMAN 0700 86 230/ 12/ 16 1014.1F CAPERS NEARSHORE 0708 85 84 240/ 17/ 23 1013.5F FRIPP NEARSHORE 0708 87 87 230/ 19/ 25 1013.8F STATION/POSITION TIME TEMP WIND PRES WAVE SWELL AIR SEA DIR/SP/G HT/PER HT/PER/DIR (UTC) (F) (DEG/KT/KT) (MB) (FT/S) (FT/S/D) 5E ST. MARYS GA 0701 85 N/A 2/ 4 FRYING PAN BUOY 0700 86 85 230/ 17/ 21 1013.1F BUOY 41025 0750 85 85 230/ 19/ 21 1011.4F 4/ 5 2/210/10 CAPE LOOKOUT NC 0700 84 240/ 12/ 16 1012.2R BUOY 41002 0750 83 84 250/ 8/ 10 1015.3F 3/ 6 3/250/ 6 BUOY 41010 0720 85 87 220/ 10/ 12 1016.6F ST AUGUSTINE FL 0800 79 84 240/ 5/ 6 1017.3F $$

USA.gov is the U.S. government's official web portal to all federal, state and local government web resources and services.